User: anonymous   Login
Location: Caracas
(10.5033°N, 66.8422°W)
Time: 20:02:39
(UTC-04:00)
Language:

M-CUBED/EXP-1 PRIME - Orbit

View from above orbital plane
View from above orbital plane
View from above satellite
View from above satellite

Ground track
Ground track

The orbit data is extracted from the following two-line orbital elements,

1 37855U 11061F   18348.47504232  .00000994  00000-0  58335-4 0  9998
2 37855 101.7240 143.3384 0174971 268.4509  89.6654 15.04936144388761
Epoch (UTC): 14 December 2018 11:24:03
Eccentricity: 0.0174971
inclination: 101.7240°
perigee height: 430 km
apogee height: 673 km
right ascension of ascending node: 143.3384°
argument of perigee: 268.4509°
revolutions per day: 15.04936144
mean anomaly at epoch: 89.6654°
orbit number at epoch: 38876

The dashed part of the orbit path shows where the satellite is in the earth's shadow,  

DLR